Location: Poprad
(49.0500°N, 20.3000°E)
Time: 02:48:59
(UTC+02:00)

YUBILEINY - Visible Passes

Search period start: 19 April 2024 00:00
Search period end: 29 April 2024 00:00
Orbit: 1479 x 1508 km, 82.5° (Epoch: 18 April)

Date Brightness Start Highest point End Pass type
(mag) Time Alt. Az. Time Alt. Az. Time Alt. Az.
19 Apr ? 04:27:10 10° N 04:33:57 24° NE 04:40:39 10° ESE visible
19 Apr ? 21:28:08 10° WSW 21:35:19 27° WNW 21:42:36 10° N visible
20 Apr ? 03:38:33 10° NNE 03:43:00 14° NE 03:47:25 10° ENE visible
20 Apr ? 20:36:39 10° SW 20:44:56 44° WNW 20:53:19 10° N visible
20 Apr ? 22:42:00 10° WNW 22:44:48 12° NW 22:47:38 10° NNW visible
21 Apr ? 04:44:22 10° N 04:52:09 33° ENE 04:59:49 10° SE visible
21 Apr ? 21:47:42 10° W 21:53:40 19° NW 21:59:39 10° N visible
22 Apr ? 03:55:18 10° N 04:01:31 20° NE 04:07:40 10° E visible
22 Apr ? 20:55:23 10° WSW 21:02:59 31° WNW 21:10:38 10° N visible
23 Apr ? 03:07:06 10° NNE 03:10:26 12° NE 03:13:45 10° ENE visible
23 Apr ? 20:04:12 10° SW 20:12:42 50° WNW 20:21:17 10° N visible
23 Apr ? 22:08:11 10° WNW 22:12:13 14° NW 22:16:17 10° NNW visible
24 Apr ? 04:12:25 10° N 04:19:49 29° ENE 04:27:07 10° ESE visible
24 Apr ? 21:14:41 10° WSW 21:21:13 22° NW 21:27:48 10° N visible
25 Apr ? 03:23:30 10° N 03:29:03 18° NE 03:34:32 10° E visible
25 Apr ? 20:22:44 10° SW 20:30:40 36° WNW 20:38:40 10° N visible
26 Apr ? 02:36:17 10° NNE 02:37:49 10° NE 02:39:20 10° NE visible
26 Apr ? 04:29:43 10° N 04:37:54 40° ENE 04:45:58 10° SE visible
26 Apr ? 21:34:43 10° W 21:39:41 16° NW 21:44:40 10° NNW visible
27 Apr ? 03:40:30 10° N 03:47:26 25° ENE 03:54:17 10° ESE visible
27 Apr ? 20:41:47 10° WSW 20:48:49 26° WNW 20:55:54 10° N visible
28 Apr ? 02:51:48 10° NNE 02:56:32 15° NE 03:01:14 10° E visible
28 Apr ? 04:47:07 10° N 04:55:47 56° ENE 05:04:19 10° SSE visible
28 Apr ? 21:56:14 10° NW 21:58:23 11° NW 22:00:32 10° NNW visible
